Location: Adamstown South Public School
(32.9318°S, 151.7012°E)
Time: 18:02:44
(UTC+00:00)

IRS-1C Rocket - Pass Details

Date: 07 June 2020
Orbit: 801 x 805 km, 99.0° (Epoch: 04 July)

Event Time Altitude Azimuth Distance (km) Brightness Sun altitude
Exits shadow 08:18:24 17° 153° (SSE) 1,967 5.7 -17.4°
Maximum altitude 08:22:26 55° 79° (E) 971 4.2 -18.2°
Drops below altitude 10° 08:27:34 10° 2° (N) 2,374 6.7 -19.3°
Sets 08:29:56 0° 357° (N) 3,296 7.5 -19.7°
